Regional Weather Roundup
Issued by NWS Cleveland, OH

Home | Current Version | Previous Version | Text Only | Print | Product List | Glossary Off
Versions: 1 2 3 4 5 6 7 8 9 10 11 12 13 14 15 16 17 18 19 20 21 22 23 24 25 26 27 28 29 30 31 32 33 34 35 36 37 38 39 40 41 42 43 44 45 46 47 48 49 50

000
ASUS41 KCLE 241410
RWRCLE
OHIO REGIONAL WEATHER ROUNDUP
NATIONAL WEATHER SERVICE WILMINGTON, OH
1000 AM EDT WED AUG 24 2016

NOTE: "FAIR" INDICATES FEW OR NO CLOUDS BELOW 12,000 FEET WITH NO
SIGNIFICANT WEATHER AND/OR OBSTRUCTIONS TO VISIBILITY.

OHZ001>008-015>018-024>027-034-035-043-044-241500-
   NORTHWEST OHIO

CITY           SKY/WX    TMP DP  RH WIND       PRES   REMARKS
DEFIANCE       PTSUNNY   75  63  66 S9        30.12F
FINDLAY        FAIR      73  62  68 S12       30.15F
TOLEDO EXPRESS FAIR      72  64  76 S7        30.12F
TOLEDO EXEC    FAIR      73  64  73 S14       30.14F
LIMA           FAIR      73  65  75 S13       30.16F
$$

OHZ009>014-019>023-028>033-038-089-241500-
   NORTHEAST OHIO

CITY           SKY/WX    TMP DP  RH WIND       PRES   REMARKS
CLE-HOPKINS    FAIR      78  58  49 S14       30.20F
CLE-LAKEFRONT  FAIR      79  60  52 S10       30.17F
CUY CO. ARPT   MOSUNNY   81  63  54 S9        30.20F
LORAIN-ELYRIA  FAIR      71  61  70 S8        30.19F
ASHTABULA      FAIR      71  64  78 S7        30.23F
AKRON-CANTON   PTSUNNY   73  58  59 SW9       30.23F
WOOSTER        FAIR      67  63  87 S5        30.23F
MANSFIELD      FAIR      72  61  68 S8        30.22F
YOUNGSTOWN     FAIR      73  61  65 S8        30.24F
$$

OHZ042-051>053-060>062-070>072-077>081-241500-
  SOUTHWEST OHIO

CITY           SKY/WX    TMP DP  RH WIND       PRES   REMARKS
CINC-COVINGTON CLOUDY    74  67  78 S7        30.20S
CINC-LUNKEN    FAIR      72  67  84 S5        30.20F
HAMILTON       FAIR      74  66  76 CALM      30.20S
DAYTON         PTSUNNY   75  63  66 S9        30.19F
WRIGHT-PAT AFB FAIR      72  63  73 S7        30.19F
DAYTON GENERAL FAIR      73  63  70 S8        30.19F
WILMINGTON     FAIR      73  65  75 S7        30.21F
$$

OHZ036-037-039>041-045>050-054>059-063>069-073>076-082>088-241500-
  CENTRAL AND SOUTHEAST OHIO

CITY           SKY/WX    TMP DP  RH WIND       PRES   REMARKS
COLUMBUS       CLOUDY    70  61  73 S6        30.20F
OSU AIRPORT    FAIR      71  62  73 S8        30.20F
BOLTON FIELD   SUNNY     66  64  94 S5        30.21F
RICKENBACK AFB FAIR      68  64  86 S3        30.20F
NEWARK         FAIR      72  64  76 S3        30.21F
MARION         FAIR      73  63  70 S14       30.19F
LANCASTER      FAIR      72  65  78 S3        30.22F
ZANESVILLE     FAIR      71  64  78 SE3       30.23F
NEW PHILLY     FAIR      69  62  78 E5        30.24F
$$




USA.gov is the U.S. government's official web portal to all federal, state and local government web resources and services.